Weather History for Ann Arbor, MI

Change the Weather History Date:

Wednesday, October 9, 2013

  Actual Average Record
Temperature  
Mean Temperature 52 °F -  
Max Temperature 70 °F 62 °F 79 °F (2011)
Min Temperature 35 °F 36 °F 27 °F (2012)
Degree Days  
Heating Degree Days 13    
Growing Degree Days 2 (Base 50)    
Moisture  
Dew Point 41 °F    
Average Humidity 82    
Maximum Humidity 100    
Minimum Humidity 36    
Precipitation  
Precipitation 0.00 in - - ()
Sea Level Pressure  
Sea Level Pressure 30.27 in    
Wind  
Wind Speed 1 mph (SE)    
Max Wind Speed 9 mph    
Max Gust Speed -    
Visibility 7 miles    
Events Fog    
Averages and records for this station are not official NWS values.
T = Trace of Precipitation, MM = Missing Value Source: NWS Daily Summary

Daily Weather History Graph

Daily Weather History Graph

Search for Another Location

Airport:

Trip Planner

Search our weather history database for the weather conditions in past years. The results will help you decide how hot, cold, wet, or windy it might be!

Date:

Astronomy

Oct. 09, 2013 Rise Set
Actual Time 7:41 AM EDT 7:02 PM EDT
Civil Twilight 7:13 AM EDT 7:30 PM EDT
Nautical Twilight 6:40 AM EDT 8:02 PM EDT
Astronomical Twilight 6:08 AM EDT 8:35 PM EDT
Moon 12:39 PM EDT (10/9) 10:31 PM EDT (10/9)
Length of Visible Light 12h 17m
Length of Day
11h 21m
Waxing Crescent, 25% of the Moon is Illuminated
Oct 9
Waxing Crescent
Oct 11
First Quarter
Oct 18
Full
Oct 26
Last Quarter
Nov 3
New

Hourly Weather History & Observations

Time (EDT) Temp. Dew Point Humidity Pressure Visibility Wind Dir Wind Speed Gust Speed Precip Events Conditions
12:53 AM 42.1 °F 39.9 °F 92% 30.27 in 10.0 mi Calm Calm - N/A   Clear
1:53 AM 39.0 °F 37.9 °F 96% 30.27 in 10.0 mi Calm Calm - N/A   Clear
2:53 AM 41.0 °F 39.0 °F 93% 30.27 in 8.0 mi Calm Calm - N/A   Clear
3:34 AM 39.2 °F 39.2 °F 100% 30.26 in 1.0 mi Calm Calm - N/A   Clear
3:41 AM 39.2 °F 37.4 °F 93% 30.26 in 0.5 mi Calm Calm - N/A Fog Fog
3:49 AM 39.2 °F 37.4 °F 93% 30.26 in 1.5 mi Calm Calm - N/A   Clear
3:53 AM 39.0 °F 37.9 °F 96% 30.27 in 3.0 mi Calm Calm - N/A   Clear
4:17 AM 37.4 °F 37.4 °F 100% 30.27 in 1.8 mi Calm Calm - N/A   Clear
4:24 AM 37.4 °F 37.4 °F 100% 30.27 in 1.2 mi Calm Calm - N/A   Clear
4:27 AM 37.4 °F 37.4 °F 100% 30.27 in 2.0 mi Calm Calm - N/A   Clear
4:32 AM 37.4 °F 37.4 °F 100% 30.27 in 0.8 mi Calm Calm - N/A   Clear
4:43 AM 37.4 °F 37.4 °F 100% 30.28 in 1.5 mi Calm Calm - N/A   Clear
4:46 AM 37.4 °F 37.4 °F 100% 30.28 in 3.0 mi Calm Calm - N/A   Clear
4:53 AM 37.9 °F 37.0 °F 97% 30.29 in 2.5 mi Calm Calm - N/A   Clear
5:00 AM 35.6 °F 35.6 °F 100% 30.28 in 7.0 mi Calm Calm - N/A   Clear
5:53 AM 39.0 °F 37.0 °F 93% 30.29 in 10.0 mi Calm Calm - N/A   Clear
6:53 AM 37.0 °F 36.0 °F 96% 30.30 in 10.0 mi Calm Calm - N/A   Clear
7:53 AM 37.9 °F 36.0 °F 93% 30.31 in 2.0 mi Calm Calm - N/A   Clear
8:01 AM 39.2 °F 37.4 °F 93% 30.30 in 7.0 mi Calm Calm - N/A   Clear
8:53 AM 45.0 °F 43.0 °F 93% 30.32 in 10.0 mi Calm Calm - N/A   Clear
9:53 AM 57.0 °F 51.1 °F 81% 30.32 in 10.0 mi Calm Calm - N/A   Clear
10:53 AM 63.0 °F 53.1 °F 70% 30.32 in 10.0 mi Calm Calm - N/A   Clear
11:53 AM 66.0 °F 48.0 °F 52% 30.32 in 10.0 mi ESE 6.9 mph - N/A   Clear
12:53 PM 68.0 °F 48.0 °F 49% 30.31 in 10.0 mi SSE 6.9 mph - N/A   Clear
1:53 PM 69.1 °F 48.0 °F 47% 30.29 in 10.0 mi South 9.2 mph - N/A   Clear
2:53 PM 69.1 °F 45.0 °F 42% 30.27 in 10.0 mi SSE 8.1 mph - N/A   Clear
3:53 PM 69.1 °F 41.0 °F 36% 30.25 in 10.0 mi ESE 8.1 mph - N/A   Clear
4:53 PM 68.0 °F 41.0 °F 37% 30.24 in 10.0 mi East 8.1 mph - N/A   Clear
5:53 PM 66.0 °F 44.1 °F 45% 30.24 in 10.0 mi ESE 6.9 mph - N/A   Clear
6:53 PM 61.0 °F 44.1 °F 54% 30.24 in 10.0 mi SE 6.9 mph - N/A   Clear
7:53 PM 54.0 °F 43.0 °F 66% 30.25 in 10.0 mi Calm Calm - N/A   Clear
8:53 PM 46.0 °F 44.1 °F 93% 30.25 in 10.0 mi Calm Calm - N/A   Clear
9:53 PM 46.9 °F 42.1 °F 83% 30.24 in 10.0 mi Calm Calm - N/A   Clear
10:53 PM 46.0 °F 44.1 °F 93% 30.24 in 10.0 mi Calm Calm - N/A   Clear
11:53 PM 48.0 °F 45.0 °F 89% 30.23 in 10.0 mi NNE 3.5 mph - N/A   Clear